Location: Branche des Alpilles
(43.6087°N, 4.6976°E)
Time: 05:20:55
(UTC+00:00)

X-37B - Pass Details

Date: 30 November 2020
Orbit: 383 x 391 km, 45.0° (Epoch: 26 January)

Event Time Altitude Azimuth Distance (km) Brightness Sun altitude
Rises 18:16:41 0° 263° (W) 2,260 5.9 -23.1°
Reaches altitude 10° 18:18:45 10° 265° (W) 1,408 4.5 -23.4°
Enters shadow 18:20:43 35° 273° (W) 650 2.2 -23.8°
